DECAYED
Showing default

GLOBAL-20, 52197 (Decayed)

Orbit data source: Space-Track

GLOBAL-20, 52197 was a payload satellite owned by BlackSky Global (US) in LEO that was launched on Sat, 02 Apr 2022 UTC via an ELECTRON launch vehicle from the Rocket Lab Launch Complex (RLLC). Payload-class satellites include a variety of spacecraft equipped with specific instruments for various scientific and technological missions. These include communications satellites like Starlink; space stations such as the ISS; scientific satellites like the Hubble; Earth observation satellites from companies like Planet Labs, Umbra, and HawkEye 360; GPS; miniature CubeSats for education and research; and military/defense satellites.

Not visible in the next 10 days
Identifier
52197, 2022-034C
Orbit
Decayed
Country
Flag of USUS
Related business
Manufacturer
LeoStella
Mission
Decayed Commercial Imaging
Bus & Motor
BSKY, Unknown motor
Mass
55 kg wet, ~50 kg dry
Launch date (UTC)
2022-04-02 (4 years ago)
Launch vehicle
ELECTRON
Launch site
Rocket Lab Launch Complex (RLLC)
Object type
Payload
Rocket body
Debris
Shape & HBR
Box, 1.0 m
Radar Cross Section
0.625 m², Medium (>0.1 m² and < 1m²)

Expand to show TLE details & history
Last TLE update: 1 year ago

TLE from 1 year ago
0 GLOBAL-20
1 52197U 22034C   25091.00794098  .12635461  12651-4  18839-3 0  9998
2 52197  52.9584 129.2319 0003631 319.6989  40.3790 16.48521086169666
Epoch: 2025-04-01T00:11Z
TLE epoch observation values (Epoch: 2025-04-01T00:11:26.100Z)
Latitude
-0.00006°
Longitude
-63.24256°
Altitude
142.352 km
Speed
7.823 km/s
True Right ascension
08h 36m 55s
True Declination
0° 00' 00"
Sunlit
Object was in full shadow at epoch
Visualization orbit readout
Latitude
Unknown
Longitude
Unknown
Altitude
Unknown
Speed
Unknown
Apparent Right ascension
Unknown
Apparent Declination
Unknown
Sunlit
N/A
Visualization observer readout
Local Sidereal Time
21:28:03
Azimuth
Unknown
Elevation
Unknown
Doppler factor
Unknown
Orbital elements
Apogee altitude
145.904 km
Perigee altitude
141.168 km
Semi-major axis
6,521.673 km
Eccentricity
0.00036
Inclination
52.9584°
RAAN
129.2319°
Arg. of periapsis
319.6989°
True anomaly
40.40596°
Mean anomaly
40.379°
Eccentric anomaly
40.39248°
Mean motion
4.12102 °/min
Orbital period
87.36 mins
BSTAR
0.00018839
Loading maneuver chart data...
Computing Atmospheric mass density...
Loading historical data...
Loading historical data...
Loading historical data...
Loading historical data...
Loading historical data...
Loading historical data...
Loading historical data...

Documentation

Showing up to 5 results
|